Weather History for Ironwood, MI

Change the Weather History Date:

Monday, June 10, 2013

  Actual Average Record
Temperature  
Mean Temperature 64 °F -  
Max Temperature 66 °F 68 °F 87 °F (2012)
Min Temperature 62 °F 46 °F 32 °F (2006)
Degree Days  
Heating Degree Days 1    
Growing Degree Days 14 (Base 50)    
Moisture  
Dew Point 54 °F    
Average Humidity 72    
Maximum Humidity 77    
Minimum Humidity 68    
Precipitation  
Precipitation 0.00 in - - ()
Sea Level Pressure  
Sea Level Pressure 29.82 in    
Wind  
Wind Speed 7 mph (SSE)    
Max Wind Speed 10 mph    
Max Gust Speed 20 mph    
Visibility 10 miles    
Events      
Averages and records for this station are not official NWS values.
T = Trace of Precipitation, MM = Missing Value Source: NWS Daily Summary

Daily Weather History Graph

Daily Weather History Graph

Search for Another Location

Airport:

Trip Planner

Search our weather history database for the weather conditions in past years. The results will help you decide how hot, cold, wet, or windy it might be!

Date:

Astronomy

Jun. 10, 2013 Rise Set
Actual Time 5:07 AM CDT 8:52 PM CDT
Civil Twilight 4:28 AM CDT 9:31 PM CDT
Nautical Twilight 3:36 AM CDT 10:24 PM CDT
Astronomical Twilight 2:22 AM CDT 11:39 PM CDT
Moon 7:01 AM CDT (6/10) 10:12 PM CDT (6/10)
Length of Visible Light 17h 03m
Length of Day
15h 45m
Waxing Crescent, 4% of the Moon is Illuminated
Jun 10
Waxing Crescent
Jun 16
First Quarter
Jun 23
Full
Jun 29
Last Quarter
Jul 8
New

Hourly Weather History & Observations

Time (CDT) Temp. Dew Point Humidity Pressure Visibility Wind Dir Wind Speed Gust Speed Precip Events Conditions
1:15 AM 62.6 °F 53.6 °F 72% 29.84 in 10.0 mi SSE 9.2 mph - N/A   Partly Cloudy
1:35 AM 62.6 °F 51.8 °F 68% 29.83 in 10.0 mi SSE 10.4 mph 16.1 mph N/A   Partly Cloudy
1:55 AM 62.6 °F 53.6 °F 72% 29.83 in 10.0 mi South 9.2 mph - N/A   Mostly Cloudy
2:15 AM 62.6 °F 53.6 °F 72% 29.83 in 10.0 mi South 8.1 mph - N/A   Mostly Cloudy
2:35 AM 62.6 °F 53.6 °F 72% 29.82 in 10.0 mi South 8.1 mph - N/A   Mostly Cloudy
2:55 AM 62.6 °F 53.6 °F 72% 29.82 in 10.0 mi SSE 6.9 mph - N/A   Scattered Clouds
3:15 AM 62.6 °F 53.6 °F 72% 29.82 in 10.0 mi SSE 8.1 mph - N/A   Clear
3:35 AM 62.6 °F 53.6 °F 72% 29.81 in 10.0 mi SSE 10.4 mph - N/A   Clear
3:55 AM 62.6 °F 53.6 °F 72% 29.81 in 10.0 mi SSE 10.4 mph 19.6 mph N/A   Partly Cloudy
4:15 AM 62.6 °F 53.6 °F 72% 29.81 in 10.0 mi South 5.8 mph - N/A   Scattered Clouds
4:35 AM 62.6 °F 53.6 °F 72% 29.81 in 10.0 mi SSE 8.1 mph - N/A   Partly Cloudy
4:55 AM 62.6 °F 53.6 °F 72% 29.81 in 10.0 mi SSE 8.1 mph 16.1 mph N/A   Clear
5:15 AM 62.6 °F 53.6 °F 72% 29.81 in 10.0 mi SSE 9.2 mph - N/A   Partly Cloudy
5:35 AM 62.6 °F 55.4 °F 77% 29.81 in 10.0 mi SSE 8.1 mph - N/A   Scattered Clouds
5:55 AM 62.6 °F 53.6 °F 72% 29.82 in 10.0 mi NNW 3.5 mph - N/A   Mostly Cloudy
6:15 AM 62.6 °F 53.6 °F 72% 29.81 in 10.0 mi South 5.8 mph - N/A   Partly Cloudy
6:35 AM 62.6 °F 53.6 °F 72% 29.81 in 10.0 mi Calm Calm - N/A   Clear
6:55 AM 62.6 °F 53.6 °F 72% 29.81 in 10.0 mi Calm Calm - N/A   Clear
7:15 AM 62.6 °F 55.4 °F 77% 29.82 in 10.0 mi SW 3.5 mph - N/A   Partly Cloudy
7:35 AM 62.6 °F 55.4 °F 77% 29.83 in 10.0 mi NNW 4.6 mph - N/A   Partly Cloudy
7:55 AM 64.4 °F 55.4 °F 73% 29.83 in 10.0 mi West 4.6 mph - N/A   Partly Cloudy
8:15 AM 64.4 °F 55.4 °F 73% 29.82 in 9.0 mi SSW 4.6 mph - N/A   Clear
6:15 PM 66.2 °F 57.2 °F 73% 29.81 in 10.0 mi NNW 6.9 mph - N/A   Clear
6:35 PM 66.2 °F 55.4 °F 68% 29.82 in 10.0 mi NNW 8.1 mph - N/A   Clear
6:55 PM 66.2 °F 55.4 °F 68% 29.82 in 10.0 mi NE 4.6 mph - N/A   Clear
7:15 PM 66.2 °F 55.4 °F 68% 29.82 in 10.0 mi NE 3.5 mph - N/A   Partly Cloudy
7:35 PM 66.2 °F 55.4 °F 68% 29.82 in 10.0 mi ENE 4.6 mph - N/A   Clear
7:55 PM 64.4 °F 55.4 °F 73% 29.82 in 10.0 mi ENE 3.5 mph - N/A   Clear